Time,TemperatureF,DewpointF,PressureIn,WindDirection,WindDirectionDegrees,WindSpeedMPH,WindSpeedGustMPH,Humidity,HourlyPrecipIn,Conditions,Clouds,dailyrainin,SoftwareType,DateUTC
2013-06-23 00:06:00,66.9,58.0,30.16,SW,232,3.0,7.0,74,0.00,,,0.00,weatherlink.com 1.10,2013-06-23 04:06:00,
2013-06-23 00:21:00,66.8,58.0,30.16,SW,236,0.0,9.0,73,0.00,,,0.00,weatherlink.com 1.10,2013-06-23 04:21:00,
2013-06-23 00:36:00,66.7,57.0,30.17,WSW,252,2.0,7.0,72,0.00,,,0.00,weatherlink.com 1.10,2013-06-23 04:36:00,
2013-06-23 00:51:00,66.7,57.0,30.17,West,265,2.0,7.0,71,0.00,,,0.00,weatherlink.com 1.10,2013-06-23 04:51:00,
2013-06-23 01:06:00,66.8,56.0,30.17,WSW,240,2.0,8.0,69,0.00,,,0.00,weatherlink.com 1.10,2013-06-23 05:06:00,
2013-06-23 01:21:00,66.9,56.0,30.16,SW,225,1.0,7.0,68,0.00,,,0.00,weatherlink.com 1.10,2013-06-23 05:21:00,
2013-06-23 01:36:00,67.1,56.0,30.16,SW,234,4.0,6.0,68,0.00,,,0.00,weatherlink.com 1.10,2013-06-23 05:36:00,
2013-06-23 01:51:00,67.2,56.0,30.16,West,269,0.0,7.0,68,0.00,,,0.00,weatherlink.com 1.10,2013-06-23 05:51:00,
2013-06-23 02:06:00,67.1,56.0,30.17,WSW,256,1.0,6.0,68,0.00,,,0.00,weatherlink.com 1.10,2013-06-23 06:06:00,
2013-06-23 02:21:00,67.0,56.0,30.16,West,275,3.0,6.0,69,0.00,,,0.00,weatherlink.com 1.10,2013-06-23 06:21:00,
2013-06-23 02:36:00,67.0,56.0,30.15,West,275,0.0,7.0,69,0.00,,,0.00,weatherlink.com 1.10,2013-06-23 06:36:00,
2013-06-23 02:51:00,67.0,57.0,30.15,West,272,4.0,7.0,70,0.00,,,0.00,weatherlink.com 1.10,2013-06-23 06:51:00,
2013-06-23 03:06:00,66.0,58.0,30.14,West,279,1.0,5.0,75,0.00,,,0.00,weatherlink.com 1.10,2013-06-23 07:06:00,
2013-06-23 03:21:00,65.9,58.0,30.13,WSW,240,1.0,8.0,75,0.00,,,0.00,weatherlink.com 1.10,2013-06-23 07:21:00,
2013-06-23 03:36:00,66.2,58.0,30.13,SW,228,1.0,7.0,74,0.00,,,0.00,weatherlink.com 1.10,2013-06-23 07:36:00,
2013-06-23 03:51:00,66.2,57.0,30.13,WSW,240,4.0,7.0,73,0.00,,,0.00,weatherlink.com 1.10,2013-06-23 07:51:00,
2013-06-23 04:06:00,66.2,58.0,30.13,West,265,0.0,5.0,74,0.00,,,0.00,weatherlink.com 1.10,2013-06-23 08:06:00,
2013-06-23 04:21:00,66.2,57.0,30.13,SW,226,0.0,4.0,73,0.00,,,0.00,weatherlink.com 1.10,2013-06-23 08:21:00,
2013-06-23 04:36:00,66.2,58.0,30.13,WSW,251,1.0,6.0,74,0.00,,,0.00,weatherlink.com 1.10,2013-06-23 08:36:00,
2013-06-23 04:51:00,66.2,58.0,30.13,SW,224,1.0,8.0,75,0.00,,,0.00,weatherlink.com 1.10,2013-06-23 08:51:00,
2013-06-23 05:06:00,66.3,58.0,30.13,SSW,212,3.0,4.0,75,0.00,,,0.00,weatherlink.com 1.10,2013-06-23 09:06:00,
2013-06-23 05:21:00,66.4,59.0,30.13,WSW,251,1.0,9.0,76,0.00,,,0.00,weatherlink.com 1.10,2013-06-23 09:21:00,
2013-06-23 05:37:00,66.3,59.0,30.13,SW,234,2.0,6.0,77,0.00,,,0.00,weatherlink.com 1.10,2013-06-23 09:37:00,
2013-06-23 05:52:00,66.3,59.0,30.13,SW,233,1.0,7.0,78,0.00,,,0.00,weatherlink.com 1.10,2013-06-23 09:52:00,
2013-06-23 06:07:00,66.5,59.0,30.13,NNW,328,2.0,6.0,78,0.00,,,0.00,weatherlink.com 1.10,2013-06-23 10:07:00,
2013-06-23 06:22:00,67.0,60.0,30.14,SW,228,2.0,6.0,78,0.00,,,0.00,weatherlink.com 1.10,2013-06-23 10:22:00,
2013-06-23 06:37:00,67.4,60.0,30.14,West,266,0.0,6.0,78,0.00,,,0.00,weatherlink.com 1.10,2013-06-23 10:37:00,
2013-06-23 06:52:00,68.1,60.0,30.14,WSW,249,1.0,9.0,76,0.00,,,0.00,weatherlink.com 1.10,2013-06-23 10:52:00,
2013-06-23 07:07:00,69.1,61.0,30.14,West,267,1.0,4.0,76,0.00,,,0.00,weatherlink.com 1.10,2013-06-23 11:07:00,
2013-06-23 07:22:00,70.1,62.0,30.14,SSW,213,1.0,4.0,76,0.00,,,0.00,weatherlink.com 1.10,2013-06-23 11:22:00,
2013-06-23 07:37:00,71.1,63.0,30.14,SW,225,5.0,6.0,76,0.00,,,0.00,weatherlink.com 1.10,2013-06-23 11:37:00,
2013-06-23 07:52:00,71.9,63.0,30.15,WSW,254,5.0,7.0,73,0.00,,,0.00,weatherlink.com 1.10,2013-06-23 11:52:00,
2013-06-23 08:07:00,72.7,64.0,30.15,West,265,1.0,6.0,74,0.00,,,0.00,weatherlink.com 1.10,2013-06-23 12:07:00,
2013-06-23 08:22:00,73.3,65.0,30.14,WSW,254,8.0,9.0,74,0.00,,,0.00,weatherlink.com 1.10,2013-06-23 12:22:00,
2013-06-23 08:37:00,74.5,65.0,30.14,WNW,282,5.0,8.0,73,0.00,,,0.00,weatherlink.com 1.10,2013-06-23 12:37:00,
2013-06-23 08:52:00,75.6,66.0,30.14,West,267,4.0,7.0,71,0.00,,,0.00,weatherlink.com 1.10,2013-06-23 12:52:00,
2013-06-23 09:07:00,75.6,66.0,30.14,West,277,5.0,7.0,71,0.00,,,0.00,weatherlink.com 1.10,2013-06-23 13:07:00,
2013-06-23 09:22:00,76.0,66.0,30.14,West,262,3.0,11.0,70,0.00,,,0.00,weatherlink.com 1.10,2013-06-23 13:22:00,
2013-06-23 09:37:00,76.6,67.0,30.13,West,275,1.0,6.0,72,0.00,,,0.00,weatherlink.com 1.10,2013-06-23 13:37:00,
2013-06-23 09:52:00,77.7,66.0,30.13,WNW,283,4.0,7.0,68,0.00,,,0.00,weatherlink.com 1.10,2013-06-23 13:52:00,
2013-06-23 10:07:00,77.9,67.0,30.13,WSW,251,3.0,7.0,70,0.00,,,0.00,weatherlink.com 1.10,2013-06-23 14:07:00,
2013-06-23 10:23:00,79.8,68.0,30.12,SW,229,0.0,7.0,68,0.00,,,0.00,weatherlink.com 1.10,2013-06-23 14:23:00,
2013-06-23 10:38:00,82.0,70.0,30.11,West,275,1.0,7.0,66,0.00,,,0.00,weatherlink.com 1.10,2013-06-23 14:38:00,
2013-06-23 10:53:00,82.1,70.0,30.11,SW,229,1.0,7.0,66,0.00,,,0.00,weatherlink.com 1.10,2013-06-23 14:53:00,
2013-06-23 11:08:00,83.3,69.0,30.11,West,274,1.0,8.0,62,0.00,,,0.00,weatherlink.com 1.10,2013-06-23 15:08:00,
2013-06-23 11:23:00,85.0,70.0,30.11,WNW,286,6.0,7.0,62,0.00,,,0.00,weatherlink.com 1.10,2013-06-23 15:23:00,
2013-06-23 11:38:00,85.9,70.0,30.10,WSW,257,4.0,8.0,60,0.00,,,0.00,weatherlink.com 1.10,2013-06-23 15:38:00,
2013-06-23 11:53:00,85.2,70.0,30.10,WSW,251,2.0,9.0,61,0.00,,,0.00,weatherlink.com 1.10,2013-06-23 15:53:00,
2013-06-23 12:08:00,87.0,71.0,30.10,SSW,213,0.0,6.0,60,0.00,,,0.00,weatherlink.com 1.10,2013-06-23 16:08:00,
2013-06-23 12:23:00,87.9,72.0,30.09,SW,221,1.0,6.0,59,0.00,,,0.00,weatherlink.com 1.10,2013-06-23 16:23:00,
2013-06-23 12:38:00,87.7,72.0,30.09,WNW,287,2.0,8.0,59,0.00,,,0.00,weatherlink.com 1.10,2013-06-23 16:38:00,
2013-06-23 12:53:00,88.2,73.0,30.08,SSW,211,1.0,7.0,60,0.00,,,0.00,weatherlink.com 1.10,2013-06-23 16:53:00,
2013-06-23 13:08:00,89.5,72.0,30.07,SSW,198,5.0,9.0,56,0.00,,,0.00,weatherlink.com 1.10,2013-06-23 17:08:00,
2013-06-23 13:23:00,89.8,72.0,30.08,SW,223,1.0,9.0,56,0.00,,,0.00,weatherlink.com 1.10,2013-06-23 17:23:00,
2013-06-23 13:38:00,90.2,71.0,30.07,SSW,205,0.0,10.0,54,0.00,,,0.00,weatherlink.com 1.10,2013-06-23 17:38:00,
2013-06-23 13:53:00,90.2,72.0,30.06,WSW,250,5.0,9.0,55,0.00,,,0.00,weatherlink.com 1.10,2013-06-23 17:53:00,
2013-06-23 14:08:00,90.9,73.0,30.05,SSW,207,2.0,8.0,55,0.00,,,0.00,weatherlink.com 1.10,2013-06-23 18:08:00,
2013-06-23 14:23:00,90.2,72.0,30.05,SW,228,5.0,12.0,56,0.00,,,0.00,weatherlink.com 1.10,2013-06-23 18:23:00,
2013-06-23 14:38:00,90.3,71.0,30.04,SW,225,7.0,9.0,54,0.00,,,0.00,weatherlink.com 1.10,2013-06-23 18:38:00,
2013-06-23 14:53:00,90.4,73.0,30.04,SW,229,2.0,10.0,56,0.00,,,0.00,weatherlink.com 1.10,2013-06-23 18:53:00,
2013-06-23 15:08:00,90.1,72.0,30.03,SSE,165,3.0,12.0,55,0.00,,,0.00,weatherlink.com 1.10,2013-06-23 19:08:00,
2013-06-23 15:23:00,90.9,73.0,30.03,SW,230,4.0,10.0,56,0.00,,,0.00,weatherlink.com 1.10,2013-06-23 19:23:00,
2013-06-23 15:39:00,90.1,71.0,30.02,NNW,334,5.0,10.0,54,0.00,,,0.00,weatherlink.com 1.10,2013-06-23 19:39:00,
2013-06-23 15:54:00,89.6,72.0,30.02,SW,232,5.0,12.0,56,0.00,,,0.00,weatherlink.com 1.10,2013-06-23 19:54:00,
2013-06-23 16:09:00,89.7,70.0,30.02,SW,225,4.0,9.0,52,0.00,,,0.00,weatherlink.com 1.10,2013-06-23 20:09:00,
2013-06-23 16:24:00,89.8,70.0,30.01,South,182,2.0,11.0,52,0.00,,,0.00,weatherlink.com 1.10,2013-06-23 20:24:00,
2013-06-23 16:39:00,89.3,70.0,30.01,SW,231,5.0,12.0,53,0.00,,,0.00,weatherlink.com 1.10,2013-06-23 20:39:00,
2013-06-23 16:54:00,88.7,69.0,30.01,SW,222,5.0,13.0,53,0.00,,,0.00,weatherlink.com 1.10,2013-06-23 20:54:00,
2013-06-23 17:09:00,88.3,68.0,30.01,SSW,205,8.0,14.0,51,0.00,,,0.00,weatherlink.com 1.10,2013-06-23 21:09:00,
2013-06-23 17:24:00,87.4,68.0,30.00,SW,222,5.0,11.0,53,0.00,,,0.00,weatherlink.com 1.10,2013-06-23 21:24:00,
2013-06-23 17:39:00,87.4,68.0,30.00,West,269,7.0,13.0,52,0.00,,,0.00,weatherlink.com 1.10,2013-06-23 21:39:00,
2013-06-23 17:54:00,86.5,68.0,30.00,WSW,257,0.0,12.0,55,0.00,,,0.00,weatherlink.com 1.10,2013-06-23 21:54:00,
2013-06-23 18:09:00,86.0,67.0,30.00,WSW,240,1.0,11.0,54,0.00,,,0.00,weatherlink.com 1.10,2013-06-23 22:09:00,
2013-06-23 18:24:00,85.8,69.0,30.00,SW,236,7.0,9.0,58,0.00,,,0.00,weatherlink.com 1.10,2013-06-23 22:24:00,
2013-06-23 18:39:00,84.5,68.0,30.01,SW,236,1.0,10.0,57,0.00,,,0.00,weatherlink.com 1.10,2013-06-23 22:39:00,
2013-06-23 18:54:00,83.9,67.0,30.02,WNW,296,11.0,13.0,57,0.00,,,0.00,weatherlink.com 1.10,2013-06-23 22:54:00,
2013-06-23 19:09:00,83.0,67.0,30.02,SW,229,2.0,9.0,59,0.00,,,0.00,weatherlink.com 1.10,2013-06-23 23:09:00,
2013-06-23 19:24:00,82.0,67.0,30.02,SW,227,5.0,10.0,61,0.00,,,0.00,weatherlink.com 1.10,2013-06-23 23:24:00,
2013-06-23 19:39:00,80.9,67.0,30.01,WNW,297,6.0,12.0,63,0.00,,,0.00,weatherlink.com 1.10,2013-06-23 23:39:00,
2013-06-23 19:54:00,80.2,67.0,30.01,SSW,211,9.0,13.0,64,0.00,,,0.00,weatherlink.com 1.10,2013-06-23 23:54:00,
2013-06-23 20:09:00,79.5,68.0,30.02,West,269,6.0,15.0,67,0.00,,,0.00,weatherlink.com 1.10,2013-06-24 00:09:00,
2013-06-23 20:24:00,79.0,68.0,30.02,West,269,6.0,14.0,69,0.00,,,0.00,weatherlink.com 1.10,2013-06-24 00:24:00,
2013-06-23 20:39:00,78.4,68.0,30.02,SSW,205,6.0,12.0,70,0.00,,,0.00,weatherlink.com 1.10,2013-06-24 00:39:00,
2013-06-23 20:54:00,77.9,68.0,30.03,SW,228,4.0,12.0,72,0.00,,,0.00,weatherlink.com 1.10,2013-06-24 00:54:00,
2013-06-23 21:09:00,77.5,68.0,30.04,West,265,3.0,9.0,73,0.00,,,0.00,weatherlink.com 1.10,2013-06-24 01:09:00,
2013-06-23 21:24:00,76.9,68.0,30.05,SSW,205,2.0,10.0,74,0.00,,,0.00,weatherlink.com 1.10,2013-06-24 01:24:00,
2013-06-23 21:39:00,76.7,68.0,30.05,West,271,2.0,11.0,75,0.00,,,0.00,weatherlink.com 1.10,2013-06-24 01:39:00,
2013-06-23 21:54:00,76.6,69.0,30.05,SW,230,8.0,14.0,76,0.00,,,0.00,weatherlink.com 1.10,2013-06-24 01:54:00,
2013-06-23 22:09:00,76.4,68.0,30.05,SSW,211,6.0,13.0,76,0.00,,,0.00,weatherlink.com 1.10,2013-06-24 02:09:00,
2013-06-23 22:24:00,76.0,68.0,30.05,SW,232,4.0,16.0,77,0.00,,,0.00,weatherlink.com 1.10,2013-06-24 02:24:00,
2013-06-23 22:39:00,75.7,68.0,30.04,SW,233,4.0,13.0,78,0.00,,,0.00,weatherlink.com 1.10,2013-06-24 02:39:00,
2013-06-23 22:54:00,75.3,68.0,30.04,West,274,4.0,12.0,79,0.00,,,0.00,weatherlink.com 1.10,2013-06-24 02:54:00,
2013-06-23 23:09:00,75.1,68.0,30.04,WSW,255,2.0,12.0,79,0.00,,,0.00,weatherlink.com 1.10,2013-06-24 03:09:00,
2013-06-23 23:24:00,74.9,68.0,30.03,SW,236,10.0,12.0,79,0.00,,,0.00,weatherlink.com 1.10,2013-06-24 03:24:00,
2013-06-23 23:39:00,74.8,68.0,30.02,WNW,300,6.0,11.0,79,0.00,,,0.00,weatherlink.com 1.10,2013-06-24 03:39:00,
2013-06-23 23:54:00,74.6,68.0,30.02,SSW,211,8.0,11.0,80,0.00,,,0.00,weatherlink.com 1.10,2013-06-24 03:54:00,